H1 CPF 2 NER 2023 10 17 9 290 01 glonass116 H2 0907001 9116 36111 2023 10 17 0 0 0 2023 10 20 23 45 0 900 1 1 0 0 0 1 H9 10 0 60234 0.00000 0 8928709.348 -9253981.781 -22036774.088 10 0 60234 900.00000 0 9509834.950 -6554125.405 -22750184.816 10 0 60234 1800.00000 0 10302554.051 -3845403.623 -23022098.336 10 0 60234 2700.00000 0 11291577.562 -1195603.976 -22847223.879 10 0 60234 3600.00000 0 12449969.954 1331149.970 -22228930.115 10 0 60234 4500.00000 0 13740196.314 3676827.357 -21179182.092 10 0 60234 5400.00000 0 15115632.140 5791659.544 -19718312.993 10 0 60234 6300.00000 0 16522473.498 7635961.279 -17874634.648 10 0 60234 7200.00000 0 17901968.311 9181528.667 -15683893.765 10 0 60234 8100.00000 0 19192875.914 10412556.588 -13188583.706 10 0 60234 9000.00000 0 20334052.168 11326038.113 -10437124.473 10 0 60234 9900.00000 0 21267051.769 11931629.962 -7482926.230 10 0 60234 10800.00000 0 21938638.321 12250990.428 -4383354.147 10 0 60234 11700.00000 0 22303096.270 12316618.310 -1198614.461 10 0 60234 12600.00000 0 22324246.772 12170242.469 2009416.491 10 0 60234 13500.00000 0 21977081.872 11860830.661 5178397.246 10 0 60234 14400.00000 0 21248947.284 11442302.484 8246736.316 10 0 60234 15300.00000 0 20140223.035 10971043.813 11154793.209 10 0 60234 16200.00000 0 18664472.406 10503328.602 13846041.444 10 0 60234 17100.00000 0 16848052.060 10092757.739 16268170.485 10 0 60234 18000.00000 0 14729198.933 9787823.892 18374104.768 10 0 60234 18900.00000 0 12356631.522 9629705.814 20122919.835 10 0 60234 19800.00000 0 9787723.488 9650385.707 21480637.807 10 0 60234 20700.00000 0 7086325.426 9871169.518 22420886.858 10 0 60234 21600.00000 0 4320325.146 10301672.832 22925412.199 10 0 60234 22500.00000 0 1559047.643 10939315.430 22984428.981 10 0 60234 23400.00000 0 -1129397.572 11769346.062 22596810.582 10 0 60234 24300.00000 0 -3680712.069 12765396.674 21770108.874 10 0 60234 25200.00000 0 -6036839.827 13890543.145 20520406.230 10 0 60234 26100.00000 0 -8148133.977 15098828.232 18872002.138 10 0 60234 27000.00000 0 -9975169.739 16337183.016 16856940.439 10 0 60234 27900.00000 0 -11490129.119 17547666.353 14514386.166 10 0 60234 28800.00000 0 -12677700.717 18669928.298 11889863.916 10 0 60234 29700.00000 0 -13535458.320 19643793.967 9034372.404 10 0 60234 30600.00000 0 -14073703.762 20411859.055 6003392.298 10 0 60234 31500.00000 0 -14314781.939 20921987.537 2855806.704 10 0 60234 32400.00000 0 -14291898.106 21129606.154 -347244.547 10 0 60234 33300.00000 0 -14047488.477 20999698.668 -3543554.290 10 0 60234 34200.00000 0 -13631213.928 20508415.532 -6671057.579 10 0 60234 35100.00000 0 -13097662.419 19644230.800 -9669037.578 10 0 60234 36000.00000 0 -12503857.876 18408597.169 -12479304.092 10 0 60234 36900.00000 0 -11906681.299 16816071.180 -15047321.686 10 0 60234 37800.00000 0 -11360313.274 14893902.830 -17323265.526 10 0 60234 38700.00000 0 -10913805.958 12681106.231 -19262984.705 10 0 60234 39600.00000 0 -10608886.910 10227049.570 -20828854.733 10 0 60234 40500.00000 0 -10478087.172 7589622.530 -21990503.224 10 0 60234 41400.00000 0 -10543272.284 4833056.712 -22725395.304 10 0 60234 42300.00000 0 -10814637.932 2025488.871 -23019267.947 10 0 60234 43200.00000 0 -11290212.450 -763632.752 -22866405.304 10 0 60234 44100.00000 0 -11955887.296 -3466192.360 -22269749.957 10 0 60234 45000.00000 0 -12785974.568 -6017992.076 -21240848.003 10 0 60234 45900.00000 0 -13744268.681 -8361172.726 -19799628.795 10 0 60234 46800.00000 0 -14785568.282 -10446370.373 -17974023.222 10 0 60234 47700.00000 0 -15857595.158 -12234519.867 -15799427.280 10 0 60234 48600.00000 0 -16903230.119 -13698231.178 -13318020.672 10 0 60234 49500.00000 0 -17862972.371 -14822681.894 -10577952.922 10 0 60234 50400.00000 0 -18677519.142 -15605989.253 -7632412.239 10 0 60234 51300.00000 0 -19290356.973 -16059046.843 -4538594.757 10 0 60234 52200.00000 0 -19650255.234 -16204833.440 -1356593.985 10 0 60234 53100.00000 0 -19713556.206 -16077223.693 1851767.898 10 0 60234 54000.00000 0 -19446164.398 -15719351.453 5024143.883 10 0 60234 54900.00000 0 -18825150.288 -15181595.401 8098877.305 10 0 60234 55800.00000 0 -17839899.847 -14519272.760 11016204.089 10 0 60234 56700.00000 0 -16492760.334 -13790139.157 13719418.166 10 0 60234 57600.00000 0 -14799154.119 -13051800.907 16155976.883 10 0 60234 58500.00000 0 -12787154.768 -12359149.603 18278524.545 10 0 60234 59400.00000 0 -10496542.206 -11761927.785 20045814.004 10 0 60234 60300.00000 0 -7977375.722 -11302528.759 21423508.403 10 0 60234 61200.00000 0 -5288143.708 -11014123.564 22384847.636 10 0 60234 62100.00000 0 -2493566.669 -10919194.125 22911166.887 10 0 60234 63000.00000 0 337855.599 -11028534.370 22992257.503 10 0 60234 63900.00000 0 3136451.198 -11340761.337 22626563.527 10 0 60234 64800.00000 0 5834029.894 -11842356.777 21821210.328 10 0 60234 65700.00000 0 8366473.871 -12508237.476 20591864.919 10 0 60234 66600.00000 0 10676158.462 -13302830.288 18962430.674 10 0 60234 67500.00000 0 12714103.014 -14181606.639 16964582.304 10 0 60234 68400.00000 0 14441763.239 -15093011.971 14637149.916 10 0 60234 69300.00000 0 15832391.285 -15980708.811 12025363.941 10 0 60234 70200.00000 0 16871907.847 -16786038.969 9179975.451 10 0 60234 71100.00000 0 17559250.951 -17450600.903 6156268.841 10 0 60234 72000.00000 0 17906188.007 -17918833.376 3012986.157 10 0 60234 72900.00000 0 17936600.221 -18140496.107 -188815.875 10 0 60234 73800.00000 0 17685270.643 -18072942.391 -3386953.643 10 0 60234 74700.00000 0 17196227.975 -17683087.368 -6519325.805 10 0 60234 75600.00000 0 16520716.921 -16948988.480 -9525119.969 10 0 60234 76500.00000 0 15714881.465 -15860970.976 -12345993.200 10 0 60234 77400.00000 0 14837259.390 -14422250.512 -14927203.228 10 0 60234 78300.00000 0 13946194.077 -12649026.075 -17218668.421 10 0 60234 79200.00000 0 13097272.824 -10570038.589 -19175936.193 10 0 60234 80100.00000 0 12340899.548 -8225612.954 -20761041.402 10 0 60234 81000.00000 0 11720103.801 -5666222.654 -21943238.643 10 0 60234 81900.00000 0 11268677.931 -2950635.867 -22699594.861 10 0 60234 82800.00000 0 11009720.325 -143719.241 -23015431.320 10 0 60234 83700.00000 0 10954645.565 2686010.432 -22884606.890 10 0 60234 84600.00000 0 11102702.868 5468986.108 -22309637.433 10 0 60234 85500.00000 0 11441022.916 8137235.088 -21301649.031 10 0 60235 0.00000 0 11945191.184 10626959.454 -19880165.930 10 0 60235 900.00000 0 12580324.196 12880947.486 -18072736.045 10 0 60235 1800.00000 0 13302603.138 14850713.430 -15914402.679 10 0 60235 2700.00000 0 14061201.613 16498281.805 -13447029.485 10 0 60235 3600.00000 0 14800526.109 17797539.188 -10718492.852 10 0 60235 4500.00000 0 15462675.265 18735098.965 -7781756.124 10 0 60235 5400.00000 0 15990014.222 19310643.166 -4693843.306 10 0 60235 6300.00000 0 16327755.245 19536727.572 -1514731.951 10 0 60235 7200.00000 0 16426435.226 19438058.764 1693813.164 10 0 60235 8100.00000 0 16244184.730 19050274.069 4869442.679 10 0 60235 9000.00000 0 15748691.895 18418276.367 7950437.774 10 0 60235 9900.00000 0 14918777.212 17594194.541 10876913.578 10 0 60235 10800.00000 0 13745511.630 16635056.244 13591986.910 10 0 60235 11700.00000 0 12232829.674 15600271.713 16042885.146 10 0 60235 12600.00000 0 10397610.616 14549035.330 18181974.259 10 0 60235 13500.00000 0 8269223.164 13537754.897 19967685.854 10 0 60235 14400.00000 0 5888551.683 12617617.248 21365325.183 10 0 60235 15300.00000 0 3306543.773 11832392.849 22347744.593 10 0 60235 16200.00000 0 582338.964 11216571.744 22895869.584 10 0 60235 17100.00000 0 -2218944.261 10793909.067 22999067.639 10 0 60235 18000.00000 0 -5028671.663 10576440.997 22655352.974 10 0 60235 18900.00000 0 -7777304.925 10564012.142 21871423.501 10 0 60235 19800.00000 0 -10397053.924 10744333.833 20662529.439 10 0 60235 20700.00000 0 -12824459.983 11093570.497 19052176.157 10 0 60235 21600.00000 0 -15002803.400 11577429.057 17071666.920 10 0 60235 22500.00000 0 -16884235.781 12152705.219 14759494.243 10 0 60235 23400.00000 0 -18431549.101 12769221.178 12160591.460 10 0 60235 24300.00000 0 -19619508.528 13372072.800 9325458.922 10 0 60235 25200.00000 0 -20435694.204 13904091.172 6309181.627 10 0 60235 26100.00000 0 -20880817.721 14308414.266 3170357.479 10 0 60235 27000.00000 0 -20968501.011 14531059.754 -30042.874 10 0 60235 27900.00000 0 -20724527.986 14523389.834 -3229862.202 10 0 60235 28800.00000 0 -20185601.376 14244363.482 -6366965.415 10 0 60235 29700.00000 0 -19397658.047 13662480.496 -9380447.025 10 0 60235 30600.00000 0 -18413814.524 12757334.716 -12211813.596 10 0 60235 31500.00000 0 -17292029.914 11520710.351 -14806118.003 10 0 60235 32400.00000 0 -16092585.065 9957174.552 -17113023.511 10 0 60235 33300.00000 0 -14875484.265 8084140.569 -19087777.219 10 0 60235 34200.00000 0 -13697888.747 5931398.001 -20692074.339 10 0 60235 35100.00000 0 -12611689.594 3540128.816 -21894797.101 10 0 60235 36000.00000 0 -11661321.571 961449.170 -22672614.547 10 0 60235 36900.00000 0 -10881909.063 -1745463.289 -23010432.160 10 0 60235 37800.00000 0 -10297821.327 -4515579.920 -22901683.108 10 0 60235 38700.00000 0 -9921697.065 -7280478.691 -22348455.768 10 0 60235 39600.00000 0 -9753978.763 -9970948.006 -21361455.119 10 0 60235 40500.00000 0 -9782975.983 -12519629.718 -19959798.606 10 0 60235 41400.00000 0 -9985454.788 -14863592.622 -18170649.992 10 0 60235 42300.00000 0 -10327728.470 -16946730.284 -16028697.745 10 0 60235 43200.00000 0 -10767203.792 -18721884.189 -13575487.345 10 0 60235 44100.00000 0 -11254317.750 -20152604.322 -10858619.799 10 0 60235 45000.00000 0 -11734783.271 -21214474.107 -7930831.273 10 0 60235 45900.00000 0 -12152049.082 -21895944.694 -4848971.301 10 0 60235 46800.00000 0 -12449869.655 -22198643.925 -1672899.152 10 0 60235 47700.00000 0 -12574876.204 -22137147.318 1535680.124 10 0 60235 48600.00000 0 -12479039.427 -21738221.034 4714417.120 10 0 60235 49500.00000 0 -12121919.046 -21039569.025 7801533.162 10 0 60235 50400.00000 0 -11472604.036 -20088137.600 10737024.872 10 0 60235 51300.00000 0 -10511260.508 -18938049.293 13463834.213 10 0 60235 52200.00000 0 -9230220.691 -17648253.579 15928960.765 10 0 60235 53100.00000 0 -7634565.922 -16279993.859 18084494.204 10 0 60235 54000.00000 0 -5742177.881 -14894197.755 19888546.724 10 0 60235 54900.00000 0 -3583254.739 -13548900.745 21306067.271 10 0 60235 55800.00000 0 -1199311.375 -12296811.552 22309521.905 10 0 60235 56700.00000 0 1358295.563 -11183121.502 22879427.379 10 0 60235 57600.00000 0 4030257.154 -10243649.491 23004727.891 10 0 60235 58500.00000 0 6751538.333 -9503400.048 22683008.054 10 0 60235 59400.00000 0 9453848.777 -8975594.357 21920538.197 10 0 60235 60300.00000 0 12068256.466 -8661214.276 20732151.291 10 0 60235 61200.00000 0 14527835.843 -8549077.779 19140953.904 10 0 60235 62100.00000 0 16770241.044 -8616441.937 17177876.726 10 0 60235 63000.00000 0 18740097.673 -8830107.394 14881073.187 10 0 60235 63900.00000 0 20391114.036 -9147977.212 12295177.679 10 0 60235 64800.00000 0 21687824.377 -9521003.801 9470437.586 10 0 60235 65700.00000 0 22606891.935 -9895441.237 6461735.894 10 0 60235 66600.00000 0 23137918.000 -10215307.349 3327523.403 10 0 60235 67500.00000 0 23283723.809 -10424951.024 128681.450 10 0 60235 68400.00000 0 23060094.288 -10471615.674 -3072662.525 10 0 60235 69300.00000 0 22494995.196 -10307889.952 -6214343.148 10 0 60235 70200.00000 0 21627297.395 -9893941.583 -9235365.225 10 0 60235 71100.00000 0 20505062.624 -9199439.337 -12077088.017 10 0 60235 72000.00000 0 19183463.485 -8205081.429 -14684362.489 10 0 60235 72900.00000 0 17722425.554 -6903665.223 -17006599.406 10 0 60235 73800.00000 0 16184090.908 -5300652.456 -18998747.797 10 0 60235 74700.00000 0 14630209.628 -3414205.400 -20622165.090 10 0 60235 75600.00000 0 13119568.469 -1274691.426 -21845362.594 10 0 60235 76500.00000 0 11705564.041 1076324.344 -22644612.470 10 0 60235 77400.00000 0 10434021.574 3587557.469 -23004404.990 10 0 60235 78300.00000 0 9341349.847 6199893.290 -22917747.734 10 0 60235 79200.00000 0 8453108.725 8848609.402 -22386301.241 10 0 60235 80100.00000 0 7783048.515 11465840.279 -21420348.582 10 0 60235 81000.00000 0 7332660.698 13983182.815 -20038599.298 10 0 60235 81900.00000 0 7091258.277 16334335.534 -18267831.079 10 0 60235 82800.00000 0 7036581.978 18457662.566 -16142375.595 10 0 60235 83700.00000 0 7135906.487 20298576.373 -13703457.723 10 0 60235 84600.00000 0 7347600.020 21811640.423 -10998400.311 10 0 60235 85500.00000 0 7623071.316 22962304.347 -8079709.277 10 0 60236 0.00000 0 7909021.708 23728199.189 -5004056.659 10 0 60236 900.00000 0 8149907.007 24099938.939 -1831179.423 10 0 60236 1800.00000 0 8290504.330 24081393.881 1377280.367 10 0 60236 2700.00000 0 8278475.213 23689425.691 4558976.726 10 0 60236 3600.00000 0 8066815.400 22953094.479 7652074.449 10 0 60236 4500.00000 0 7616086.919 21912371.809 10596454.717 10 0 60236 5400.00000 0 6896336.965 20616414.057 13334887.379 10 0 60236 6300.00000 0 5888621.383 19121469.083 15814146.596 10 0 60236 7200.00000 0 4586067.250 17488504.649 17986047.731 10 0 60236 8100.00000 0 2994428.583 15780658.556 19808385.151 10 0 60236 9000.00000 0 1132110.559 14060617.857 21245752.677 10 0 60236 9900.00000 0 -970339.942 12388037.185 22270230.866 10 0 60236 10800.00000 0 -3271257.242 10817104.386 22861928.080 10 0 60236 11700.00000 0 -5719351.541 9394355.126 23009365.168 10 0 60236 12600.00000 0 -8255613.872 8156827.544 22709696.613 10 0 60236 13500.00000 0 -10815552.813 7130633.532 21968764.169 10 0 60236 14400.00000 0 -13331670.549 6330005.630 20800982.072 10 0 60236 15300.00000 0 -15736075.825 5756858.575 19229056.120 10 0 60236 16200.00000 0 -17963125.580 5400882.889 17283542.013 10 0 60236 17100.00000 0 -19951985.749 5240165.596 15002251.291 10 0 60236 18000.00000 0 -21649004.869 5242310.997 12429516.280 10 0 60236 18900.00000 0 -23009801.890 5366013.435 9615328.085 10 0 60236 19800.00000 0 -24000981.360 5563014.906 6614364.267 10 0 60236 20700.00000 0 -24601404.622 5780364.139 3484925.125 10 0 60236 21600.00000 0 -24802964.277 5962880.969 287799.383 10 0 60236 22500.00000 0 -24610829.936 6055721.186 -2914918.444 10 0 60236 23400.00000 0 -24043155.491 6006932.737 -6061035.638 10 0 60236 24300.00000 0 -23130260.805 5769894.569 -9089470.009 10 0 60236 25200.00000 0 -21913322.757 5305534.406 -11941435.984 10 0 60236 26100.00000 0 -20442631.122 4584231.190 -14561584.782 10 0 60236 27000.00000 0 -18775482.949 3587321.251 -16899076.518 10 0 60236 27900.00000 0 -16973803.994 2308144.052 -18908563.607 10 0 60236 28800.00000 0 -15101596.978 752582.761 -20551066.707 10 0 60236 29700.00000 0 -13222323.359 -1060923.963 -21794726.756 10 0 60236 30600.00000 0 -11396327.720 -3101900.493 -22615419.093 10 0 60236 31500.00000 0 -9678411.877 -5328862.500 -22997218.361 10 0 60236 32400.00000 0 -8115659.254 -7690813.279 -22932705.678 10 0 60236 33300.00000 0 -6745599.506 -10129147.052 -22423112.465 10 0 60236 34200.00000 0 -5594789.144 -12579881.247 -21478298.242 10 0 60236 35100.00000 0 -4677866.573 -14976126.060 -20116562.693 10 0 60236 36000.00000 0 -3997120.179 -17250689.632 -18364295.240 10 0 60236 36900.00000 0 -3542586.873 -19338711.280 -16255468.377 10 0 60236 37800.00000 0 -3292676.299 -21180213.758 -13830983.887 10 0 60236 38700.00000 0 -3215293.978 -22722468.617 -11137883.920 10 0 60236 39600.00000 0 -3269415.698 -23922076.072 -8228441.625 10 0 60236 40500.00000 0 -3407046.386 -24746672.478 -5159148.526 10 0 60236 41400.00000 0 -3575480.337 -25176193.816 -1989618.038 10 0 60236 42300.00000 0 -3719766.797 -25203642.022 1218573.539 10 0 60236 43200.00000 0 -3785275.990 -24835321.812 4403085.788 10 0 60236 44100.00000 0 -3720256.276 -24090537.910 7502029.007 10 0 60236 45000.00000 0 -3478273.324 -23000765.333 10455170.893 10 0 60236 45900.00000 0 -3020427.146 -21608327.666 13205111.039 10 0 60236 46800.00000 0 -2317252.172 -19964638.980 15698399.932 10 0 60236 47700.00000 0 -1350218.994 -18128083.471 17886580.229 10 0 60236 48600.00000 0 -112773.308 -16161622.005 19727129.881 10 0 60236 49500.00000 0 1389132.902 -14130226.097 21184288.772 10 0 60236 50400.00000 0 3137041.366 -12098246.908 22229752.887 10 0 60236 51300.00000 0 5100519.842 -10126829.282 22843222.854 10 0 60236 52200.00000 0 7238205.526 -8271478.666 23012796.536 10 0 60236 53100.00000 0 9499316.877 -6579882.148 22735198.387 10 0 60236 54000.00000 0 11825571.622 -5090073.978 22015841.402 10 0 60236 54900.00000 0 14153431.740 -3829021.322 20868720.649 10 0 60236 55800.00000 0 16416582.441 -2811688.386 19316140.480 10 0 60236 56700.00000 0 18548542.353 -2040616.944 17388280.654 10 0 60236 57600.00000 0 20485296.522 -1506039.621 15122609.607 10 0 60236 58500.00000 0 22167842.668 -1186520.008 12563156.083 10 0 60236 59400.00000 0 23544544.603 -1050091.531 9759653.062 10 0 60236 60300.00000 0 24573194.665 -1055846.012 6766570.496 10 0 60236 61200.00000 0 25222698.994 -1155903.947 3642055.662 10 0 60236 62100.00000 0 25474315.247 -1297682.393 446801.848 10 0 60236 63000.00000 0 25322391.104 -1426363.776 -2757132.415 10 0 60236 63900.00000 0 24774572.815 -1487460.498 -5907530.250 10 0 60236 64800.00000 0 23851475.377 -1429366.163 -8943225.677 10 0 60236 65700.00000 0 22585828.500 -1205784.939 -11805291.396 10 0 60236 66600.00000 0 21021134.556 -777935.772 -14438181.803 10 0 60236 67500.00000 0 19209895.038 -116437.809 -16790809.014 10 0 60236 68400.00000 0 17211480.019 797203.064 -18817531.189 10 0 60236 69300.00000 0 15089729.810 1969569.843 -20479034.262 10 0 60236 70200.00000 0 12910388.919 3394815.979 -21743090.503 10 0 60236 71100.00000 0 10738479.099 5054675.536 -22585179.801 10 0 60236 72000.00000 0 8635720.526 6919002.493 -22988962.171 10 0 60236 72900.00000 0 6658107.864 8946817.754 -22946592.877 10 0 60236 73800.00000 0 4853741.341 11087821.360 -22458874.399 10 0 60236 74700.00000 0 3261002.242 13284308.019 -21535242.423 10 0 60236 75600.00000 0 1907147.884 15473407.314 -20193586.017 10 0 60236 76500.00000 0 807383.671 17589556.340 -18459905.095 10 0 60236 77400.00000 0 -35549.896 19567102.586 -16367811.260 10 0 60236 78300.00000 0 -631258.838 21342929.227 -13957881.031 10 0 60236 79200.00000 0 -1001051.675 22858993.695 -11276873.280 10 0 60236 80100.00000 0 -1176797.437 24064673.592 -8376825.443 10 0 60236 81000.00000 0 -1199334.417 24918821.770 -5314045.564 10 0 60236 81900.00000 0 -1116497.301 25391444.236 -2148019.494 10 0 60236 82800.00000 0 -980846.606 25464930.113 1059745.542 10 0 60236 83700.00000 0 -847197.041 25134781.614 4246918.292 10 0 60236 84600.00000 0 -770050.111 24409812.918 7351558.063 10 0 60236 85500.00000 0 -801040.431 23311809.236 10313322.382 10 0 60237 0.00000 0 -986504.699 21874660.275 13074643.404 10 0 60237 900.00000 0 -1365277.251 20143003.493 15581851.166 10 0 60237 1800.00000 0 -1966806.100 18170436.070 17786217.718 10 0 60237 2700.00000 0 -2809670.334 16017367.986 19644906.582 10 0 60237 3600.00000 0 -3900562.194 13748608.019 21121805.282 10 0 60237 4500.00000 0 -5233777.791 11430782.956 22188226.401 10 0 60237 5400.00000 0 -6791238.810 9129697.833 22823463.577 10 0 60237 6300.00000 0 -8543045.284 6907747.181 23015191.987 10 0 60237 7200.00000 0 -10448537.179 4821484.819 22759705.866 10 0 60237 8100.00000 0 -12457821.198 2919452.933 22061988.778 10 0 60237 9000.00000 0 -14513699.791 1240360.086 20935615.422 10 0 60237 9900.00000 0 -16553922.383 -188316.778 19402486.982 10 0 60237 10800.00000 0 -18513665.362 -1351249.167 17492405.058 10 0 60237 11700.00000 0 -20328137.652 -2245655.644 15242492.303 10 0 60237 12600.00000 0 -21935203.252 -2881166.803 12696470.810 10 0 60237 13500.00000 0 -23277911.223 -3279163.661 9903812.074 10 0 60237 14400.00000 0 -24306827.340 -3471618.537 6918774.882 10 0 60237 15300.00000 0 -24982069.716 -3499488.428 3799349.846 10 0 60237 16200.00000 0 -25274963.011 -3410729.789 606131.189 10 0 60237 17100.00000 0 -25169241.813 -3258019.495 -2598862.074 10 0 60237 18000.00000 0 -24661752.665 -3096279.223 -5753392.295 10 0 60237 18900.00000 0 -23762625.274 -2980108.680 -8796212.878 10 0 60237 19800.00000 0 -22494905.803 -2961236.908 -11668257.728 10 0 60237 20700.00000 0 -20893667.693 -3086099.958 -14313787.050 10 0 60237 21600.00000 0 -19004637.373 -3393647.788 -16681467.240 10 0 60237 22500.00000 0 -16882392.392 -3913473.415 -18725364.049 10 0 60237 23400.00000 0 -14588207.260 -4664343.636 -20405830.022 10 0 60237 24300.00000 0 -12187636.738 -5653193.704 -21690269.547 10 0 60237 25200.00000 0 -9747936.966 -6874628.820 -22553767.236 10 0 60237 26100.00000 0 -7335431.300 -8310954.130 -22979568.045 10 0 60237 27000.00000 0 -5012929.783 -9932732.831 -22959400.384 10 0 60237 27900.00000 0 -2837308.662 -11699850.096 -22493636.278 10 0 60237 28800.00000 0 -857349.704 -13563039.402 -21591285.632 10 0 60237 29700.00000 0 888071.874 -15465808.643 -20269824.600 10 0 60237 30600.00000 0 2371376.439 -17346686.697 -18554861.014 10 0 60237 31500.00000 0 3577189.044 -19141697.507 -16479642.829 10 0 60237 32400.00000 0 4502731.593 -20786959.091 -14084418.427 10 0 60237 33300.00000 0 5157682.549 -22221299.302 -11415660.474 10 0 60237 34200.00000 0 5563510.864 -23388779.065 -8525167.768 10 0 60237 35100.00000 0 5752312.844 -24241017.334 -5469062.025 10 0 60237 36000.00000 0 5765201.633 -24739219.967 -2306698.774 10 0 60237 36900.00000 0 5650317.906 -24855826.826 900486.440 10 0 60237 37800.00000 0 5460546.484 -24575707.329 4090173.956 10 0 60237 38700.00000 0 5251036.175 -23896853.497 7200374.343 10 0 60237 39600.00000 0 5076628.516 -22830540.748 10170636.990 10 0 60237 40500.00000 0 4989305.097 -21400949.091 12943228.900 10 0 60237 41400.00000 0 5035762.260 -19644260.171 15464260.234 10 0 60237 42300.00000 0 5255216.648 -17607267.710 17684734.267 10 0 60237 43200.00000 0 5677535.129 -15345559.343 19561501.117 10 0 60237 44100.00000 0 6321768.874 -12921345.758 21058096.691 10 0 60237 45000.00000 0 7195154.168 -10401027.751 22145450.604 10 0 60237 45900.00000 0 8292622.801 -7852602.544 22802449.651 10 0 60237 46800.00000 0 9596843.380 -5343017.235 23016346.188 10 0 60237 47700.00000 0 11078792.566 -2935579.228 22783003.858 10 0 60237 48600.00000 0 12698832.980 -687530.894 22106976.194 10 0 60237 49500.00000 0 14408253.291 1352111.356 21001416.752 10 0 60237 50400.00000 0 16151206.574 3144364.459 19487822.603 10 0 60237 51300.00000 0 17866966.301 4661658.384 17595616.087 10 0 60237 52200.00000 0 19492405.935 5888731.726 15361572.809 10 0 60237 53100.00000 0 20964598.518 6823007.117 12829106.763 10 0 60237 54000.00000 0 22223427.489 7474432.122 10047426.295 10 0 60237 54900.00000 0 23214099.289 7864793.668 7070577.126 10 0 60237 55800.00000 0 23889452.215 8026536.160 3956391.059 10 0 60237 56700.00000 0 24211964.454 8001134.308 765360.867 10 0 60237 57600.00000 0 24155376.718 7837090.450 -2440536.538 10 0 60237 58500.00000 0 23705861.087 7587641.910 -5599045.440 10 0 60237 59400.00000 0 22862686.749 7308276.170 -8648841.392 10 0 60237 60300.00000 0 21638354.458 7054159.595 -11530722.214 10 0 60237 61200.00000 0 20058193.909 6877588.979 -14188756.509 10 0 60237 62100.00000 0 18159440.724 6825574.028 -16571367.360 10 0 60237 63000.00000 0 15989831.469 6937653.212 -18632330.293 10 0 60237 63900.00000 0 13605775.207 7244035.389 -20331666.435 10 0 60237 64800.00000 0 11070177.543 7764145.774 -21636414.022 10 0 60237 65700.00000 0 8450007.342 8505637.777 -22521263.888 10 0 60237 66600.00000 0 5813706.838 9463912.656 -22969047.178 10 0 60237 67500.00000 0 3228552.033 10622167.701 -22971066.388 10 0 60237 68400.00000 0 758072.156 11951971.685 -22527263.676 10 0 60237 69300.00000 0 -1540365.549 13414344.281 -21646223.339 10 0 60237 70200.00000 0 -3617706.453 14961295.239 -20345008.324 10 0 60237 71100.00000 0 -5435006.224 16537759.854 -18648833.604 10 0 60237 72000.00000 0 -6964801.742 18083850.617 -16590582.206 10 0 60237 72900.00000 0 -8191999.115 19537331.551 -14210172.616 10 0 60237 73800.00000 0 -9114242.612 20836212.129 -11553789.106 10 0 60237 74700.00000 0 -9741749.918 21921352.279 -8672989.269 10 0 60237 75600.00000 0 -10096621.387 22738969.164 -5623705.607 10 0 60237 76500.00000 0 -10211653.108 23242940.186 -2465160.221 10 0 60237 77400.00000 0 -10128704.442 23396804.825 741286.302 10 0 60237 78300.00000 0 -9896689.642 23175380.456 3933329.255 10 0 60237 79200.00000 0 -9569279.110 22565923.297 7048933.817 10 0 60237 80100.00000 0 -9202408.228 21568784.799 10027544.538 10 0 60237 81000.00000 0 -8851699.896 20197535.027 12811266.184 10 0 60237 81900.00000 0 -8569910.557 18478547.087 15345992.499 10 0 60237 82800.00000 0 -8404508.454 16450059.383 17582460.426 10 0 60237 83700.00000 0 -8395487.135 14160754.501 19477209.099 10 0 60237 84600.00000 0 -8573507.169 11667913.710 20993424.881 10 0 60237 85500.00000 0 -8958445.046 9035223.881 22101656.137 99